owner,sensor,date,latitude,longitude,sea_surface_height_above_sea_level,qcFlag 
TCOON,ioos:station:TCOON:009:1,2014-07-01T00:12:00Z,27.8398,-97.0727,1.658,1111122 
TCOON,ioos:station:TCOON:009:1,2014-07-01T01:12:00Z,27.8398,-97.0727,1.594,1111122 
TCOON,ioos:station:TCOON:009:1,2014-07-01T02:12:00Z,27.8398,-97.0727,1.545,1111122 
TCOON,ioos:station:TCOON:009:1,2014-07-01T03:12:00Z,27.8398,-97.0727,1.536,1111122 
TCOON,ioos:station:TCOON:009:1,2014-07-01T04:12:00Z,27.8398,-97.0727,1.492,1111122 
TCOON,ioos:station:TCOON:009:1,2014-07-01T05:12:00Z,27.8398,-97.0727,1.475,1111122 
TCOON,ioos:station:TCOON:009:1,2014-07-01T06:36:00Z,27.8398,-97.0727,1.53,1111122 
TCOON,ioos:station:TCOON:009:1,2014-07-01T07:12:00Z,27.8398,-97.0727,1.524,1111122 
TCOON,ioos:station:TCOON:009:1,2014-07-01T08:12:00Z,27.8398,-97.0727,1.574,1111122 
TCOON,ioos:station:TCOON:009:1,2014-07-01T09:12:00Z,27.8398,-97.0727,1.603,1111122 
TCOON,ioos:station:TCOON:009:1,2014-07-01T10:12:00Z,27.8398,-97.0727,1.676,1111122 
TCOON,ioos:station:TCOON:009:1,2014-07-01T11:12:00Z,27.8398,-97.0727,1.71,1111122 
TCOON,ioos:station:TCOON:009:1,2014-07-01T12:12:00Z,27.8398,-97.0727,1.714,1111122 
TCOON,ioos:station:TCOON:009:1,2014-07-01T13:12:00Z,27.8398,-97.0727,1.709,1111122 
TCOON,ioos:station:TCOON:009:1,2014-07-01T14:12:00Z,27.8398,-97.0727,1.712,1111122 
TCOON,ioos:station:TCOON:009:1,2014-07-01T15:12:00Z,27.8398,-97.0727,1.728,1111122 
TCOON,ioos:station:TCOON:009:1,2014-07-01T16:12:00Z,27.8398,-97.0727,1.725,1111122 
TCOON,ioos:station:TCOON:009:1,2014-07-01T17:12:00Z,27.8398,-97.0727,1.708,1111122 
TCOON,ioos:station:TCOON:009:1,2014-07-01T18:12:00Z,27.8398,-97.0727,1.696,1111122 
TCOON,ioos:station:TCOON:009:1,2014-07-01T19:12:00Z,27.8398,-97.0727,1.688,1111122 
TCOON,ioos:station:TCOON:009:1,2014-07-01T20:06:00Z,27.8398,-97.0727,1.692,1111122 
TCOON,ioos:station:TCOON:009:1,2014-07-01T21:12:00Z,27.8398,-97.0727,1.71,1111122 
TCOON,ioos:station:TCOON:009:1,2014-07-01T22:12:00Z,27.8398,-97.0727,1.711,1111122 
TCOON,ioos:station:TCOON:009:1,2014-07-01T23:12:00Z,27.8398,-97.0727,1.667,1111122 
TCOON,ioos:station:TCOON:009:1,2014-07-02T00:12:00Z,27.8398,-97.0727,1.648,1111122 
TCOON,ioos:station:TCOON:009:1,2014-07-02T01:12:00Z,27.8398,-97.0727,1.597,1111122 
TCOON,ioos:station:TCOON:009:1,2014-07-02T02:12:00Z,27.8398,-97.0727,1.581,1111122 
TCOON,ioos:station:TCOON:009:1,2014-07-02T03:12:00Z,27.8398,-97.0727,1.555,1111122 
TCOON,ioos:station:TCOON:009:1,2014-07-02T04:12:00Z,27.8398,-97.0727,1.505,1111122 
TCOON,ioos:station:TCOON:009:1,2014-07-02T05:12:00Z,27.8398,-97.0727,1.477,1111122 
TCOON,ioos:station:TCOON:009:1,2014-07-02T06:42:00Z,27.8398,-97.0727,1.513,1111122 
TCOON,ioos:station:TCOON:009:1,2014-07-02T07:12:00Z,27.8398,-97.0727,1.519,1111122 
TCOON,ioos:station:TCOON:009:1,2014-07-02T08:12:00Z,27.8398,-97.0727,1.518,1111122 
TCOON,ioos:station:TCOON:009:1,2014-07-02T09:12:00Z,27.8398,-97.0727,1.619,1111122 
TCOON,ioos:station:TCOON:009:1,2014-07-02T10:12:00Z,27.8398,-97.0727,1.631,1111122 
TCOON,ioos:station:TCOON:009:1,2014-07-02T11:12:00Z,27.8398,-97.0727,1.68,1111122 
TCOON,ioos:station:TCOON:009:1,2014-07-02T12:12:00Z,27.8398,-97.0727,1.691,1111122 
TCOON,ioos:station:TCOON:009:1,2014-07-02T13:12:00Z,27.8398,-97.0727,1.708,1111122 
TCOON,ioos:station:TCOON:009:1,2014-07-02T14:12:00Z,27.8398,-97.0727,1.71,1111122 
TCOON,ioos:station:TCOON:009:1,2014-07-02T15:06:00Z,27.8398,-97.0727,1.705,1111122 
TCOON,ioos:station:TCOON:009:1,2014-07-02T16:12:00Z,27.8398,-97.0727,1.706,1111122 
TCOON,ioos:station:TCOON:009:1,2014-07-02T17:12:00Z,27.8398,-97.0727,1.681,1111122 
TCOON,ioos:station:TCOON:009:1,2014-07-02T18:12:00Z,27.8398,-97.0727,1.665,1111122 
TCOON,ioos:station:TCOON:009:1,2014-07-02T19:12:00Z,27.8398,-97.0727,1.638,1111122 
TCOON,ioos:station:TCOON:009:1,2014-07-02T20:12:00Z,27.8398,-97.0727,1.584,1111122 
TCOON,ioos:station:TCOON:009:1,2014-07-02T21:12:00Z,27.8398,-97.0727,1.642,1111122 
TCOON,ioos:station:TCOON:009:1,2014-07-02T22:12:00Z,27.8398,-97.0727,1.604,1111122 
TCOON,ioos:station:TCOON:009:1,2014-07-02T23:12:00Z,27.8398,-97.0727,1.638,1111122 
TCOON,ioos:station:TCOON:009:1,2014-07-03T00:12:00Z,27.8398,-97.0727,1.599,1111122 
TCOON,ioos:station:TCOON:009:1,2014-07-03T01:12:00Z,27.8398,-97.0727,1.584,1111122 
TCOON,ioos:station:TCOON:009:1,2014-07-03T02:12:00Z,27.8398,-97.0727,1.554,1111122 
TCOON,ioos:station:TCOON:009:1,2014-07-03T03:06:00Z,27.8398,-97.0727,1.548,1111122 
TCOON,ioos:station:TCOON:009:1,2014-07-03T04:12:00Z,27.8398,-97.0727,1.502,1111122 
TCOON,ioos:station:TCOON:009:1,2014-07-03T05:12:00Z,27.8398,-97.0727,1.489,1111122 
TCOON,ioos:station:TCOON:009:1,2014-07-03T06:12:00Z,27.8398,-97.0727,1.496,1111122 
TCOON,ioos:station:TCOON:009:1,2014-07-03T07:12:00Z,27.8398,-97.0727,1.513,1111122 
TCOON,ioos:station:TCOON:009:1,2014-07-03T08:12:00Z,27.8398,-97.0727,1.505,1111122 
TCOON,ioos:station:TCOON:009:1,2014-07-03T09:12:00Z,27.8398,-97.0727,1.531,1111122 
TCOON,ioos:station:TCOON:009:1,2014-07-03T10:12:00Z,27.8398,-97.0727,1.577,1111122 
TCOON,ioos:station:TCOON:009:1,2014-07-03T11:12:00Z,27.8398,-97.0727,1.621,1111122 
TCOON,ioos:station:TCOON:009:1,2014-07-03T12:12:00Z,27.8398,-97.0727,1.631,1111122 
TCOON,ioos:station:TCOON:009:1,2014-07-03T13:12:00Z,27.8398,-97.0727,1.619,1111122 
TCOON,ioos:station:TCOON:009:1,2014-07-03T14:12:00Z,27.8398,-97.0727,1.64,1111122 
TCOON,ioos:station:TCOON:009:1,2014-07-03T15:12:00Z,27.8398,-97.0727,1.514,1111122 
TCOON,ioos:station:TCOON:009:1,2014-07-03T16:12:00Z,27.8398,-97.0727,1.653,1111122 
TCOON,ioos:station:TCOON:009:1,2014-07-03T17:06:00Z,27.8398,-97.0727,1.644,1111122 
TCOON,ioos:station:TCOON:009:1,2014-07-03T18:12:00Z,27.8398,-97.0727,1.609,1111122 
TCOON,ioos:station:TCOON:009:1,2014-07-03T19:12:00Z,27.8398,-97.0727,1.614,1111122 
TCOON,ioos:station:TCOON:009:1,2014-07-03T20:12:00Z,27.8398,-97.0727,1.602,1111122 
TCOON,ioos:station:TCOON:009:1,2014-07-03T21:12:00Z,27.8398,-97.0727,1.588,1111122 
TCOON,ioos:station:TCOON:009:1,2014-07-03T22:12:00Z,27.8398,-97.0727,1.573,1111122 
TCOON,ioos:station:TCOON:009:1,2014-07-03T23:12:00Z,27.8398,-97.0727,1.6,1111122 
TCOON,ioos:station:TCOON:009:1,2014-07-04T00:12:00Z,27.8398,-97.0727,1.595,1111122 
TCOON,ioos:station:TCOON:009:1,2014-07-04T01:12:00Z,27.8398,-97.0727,1.614,1111122 
TCOON,ioos:station:TCOON:009:1,2014-07-04T02:12:00Z,27.8398,-97.0727,1.574,1111122 
TCOON,ioos:station:TCOON:009:1,2014-07-04T03:12:00Z,27.8398,-97.0727,1.561,1111122 
TCOON,ioos:station:TCOON:009:1,2014-07-04T04:12:00Z,27.8398,-97.0727,1.549,1111122 
TCOON,ioos:station:TCOON:009:1,2014-07-04T05:12:00Z,27.8398,-97.0727,1.542,1111122 
TCOON,ioos:station:TCOON:009:1,2014-07-04T06:36:00Z,27.8398,-97.0727,1.543,1111122 
TCOON,ioos:station:TCOON:009:1,2014-07-04T07:12:00Z,27.8398,-97.0727,1.515,1111122 
TCOON,ioos:station:TCOON:009:1,2014-07-04T08:12:00Z,27.8398,-97.0727,1.594,1111122 
TCOON,ioos:station:TCOON:009:1,2014-07-04T09:12:00Z,27.8398,-97.0727,1.544,1111122 
TCOON,ioos:station:TCOON:009:1,2014-07-04T10:12:00Z,27.8398,-97.0727,1.577,1111122 
TCOON,ioos:station:TCOON:009:1,2014-07-04T11:12:00Z,27.8398,-97.0727,1.606,1111122 
TCOON,ioos:station:TCOON:009:1,2014-07-04T12:12:00Z,27.8398,-97.0727,1.635,1111122 
TCOON,ioos:station:TCOON:009:1,2014-07-04T13:12:00Z,27.8398,-97.0727,1.659,1111122 
TCOON,ioos:station:TCOON:009:1,2014-07-04T14:12:00Z,27.8398,-97.0727,1.595,1111122 
TCOON,ioos:station:TCOON:009:1,2014-07-04T15:12:00Z,27.8398,-97.0727,1.617,1111122 
TCOON,ioos:station:TCOON:009:1,2014-07-04T16:12:00Z,27.8398,-97.0727,1.622,1111122 
TCOON,ioos:station:TCOON:009:1,2014-07-04T17:12:00Z,27.8398,-97.0727,1.546,1111122 
TCOON,ioos:station:TCOON:009:1,2014-07-04T18:12:00Z,27.8398,-97.0727,1.589,1111122 
TCOON,ioos:station:TCOON:009:1,2014-07-04T19:12:00Z,27.8398,-97.0727,1.535,1111122 
TCOON,ioos:station:TCOON:009:1,2014-07-04T20:12:00Z,27.8398,-97.0727,1.49,1111122 
TCOON,ioos:station:TCOON:009:1,2014-07-04T21:12:00Z,27.8398,-97.0727,1.488,1111122 
TCOON,ioos:station:TCOON:009:1,2014-07-04T22:12:00Z,27.8398,-97.0727,1.495,1111122 
TCOON,ioos:station:TCOON:009:1,2014-07-04T23:12:00Z,27.8398,-97.0727,1.51,1111122 
TCOON,ioos:station:TCOON:009:1,2014-07-05T00:12:00Z,27.8398,-97.0727,1.526,1111122 
TCOON,ioos:station:TCOON:009:1,2014-07-05T01:12:00Z,27.8398,-97.0727,1.548,1111122 
TCOON,ioos:station:TCOON:009:1,2014-07-05T02:12:00Z,27.8398,-97.0727,1.56,1111122 
TCOON,ioos:station:TCOON:009:1,2014-07-05T03:12:00Z,27.8398,-97.0727,1.592,1111122 
TCOON,ioos:station:TCOON:009:1,2014-07-05T04:06:00Z,27.8398,-97.0727,1.585,1111122 
TCOON,ioos:station:TCOON:009:1,2014-07-05T05:12:00Z,27.8398,-97.0727,1.587,1111122 
TCOON,ioos:station:TCOON:009:1,2014-07-05T06:12:00Z,27.8398,-97.0727,1.56,1111122 
TCOON,ioos:station:TCOON:009:1,2014-07-05T07:12:00Z,27.8398,-97.0727,1.598,1111122 
TCOON,ioos:station:TCOON:009:1,2014-07-05T08:12:00Z,27.8398,-97.0727,1.605,1111122 
TCOON,ioos:station:TCOON:009:1,2014-07-05T09:12:00Z,27.8398,-97.0727,1.613,1111122 
TCOON,ioos:station:TCOON:009:1,2014-07-05T10:12:00Z,27.8398,-97.0727,1.628,1111122 
TCOON,ioos:station:TCOON:009:1,2014-07-05T11:12:00Z,27.8398,-97.0727,1.645,1111122 
TCOON,ioos:station:TCOON:009:1,2014-07-05T12:12:00Z,27.8398,-97.0727,1.693,1111122 
TCOON,ioos:station:TCOON:009:1,2014-07-05T13:12:00Z,27.8398,-97.0727,1.697,1111122 
TCOON,ioos:station:TCOON:009:1,2014-07-05T14:12:00Z,27.8398,-97.0727,1.697,1111122 
TCOON,ioos:station:TCOON:009:1,2014-07-05T15:12:00Z,27.8398,-97.0727,1.693,1111122 
TCOON,ioos:station:TCOON:009:1,2014-07-05T16:12:00Z,27.8398,-97.0727,1.691,1111122 
TCOON,ioos:station:TCOON:009:1,2014-07-05T17:06:00Z,27.8398,-97.0727,1.63,1111122 
TCOON,ioos:station:TCOON:009:1,2014-07-05T18:12:00Z,27.8398,-97.0727,1.626,1111122 
TCOON,ioos:station:TCOON:009:1,2014-07-05T19:12:00Z,27.8398,-97.0727,1.626,1111122 
TCOON,ioos:station:TCOON:009:1,2014-07-05T20:12:00Z,27.8398,-97.0727,1.573,1111122 
TCOON,ioos:station:TCOON:009:1,2014-07-05T21:12:00Z,27.8398,-97.0727,1.543,1111122 
TCOON,ioos:station:TCOON:009:1,2014-07-05T22:12:00Z,27.8398,-97.0727,1.53,1111122 
TCOON,ioos:station:TCOON:009:1,2014-07-05T23:12:00Z,27.8398,-97.0727,1.542,1111122 
TCOON,ioos:station:TCOON:009:1,2014-07-06T00:12:00Z,27.8398,-97.0727,1.514,1111122 
TCOON,ioos:station:TCOON:009:1,2014-07-06T01:06:00Z,27.8398,-97.0727,1.564,1111122 
TCOON,ioos:station:TCOON:009:1,2014-07-06T02:12:00Z,27.8398,-97.0727,1.589,1111122 
TCOON,ioos:station:TCOON:009:1,2014-07-06T03:12:00Z,27.8398,-97.0727,1.624,1111122 
TCOON,ioos:station:TCOON:009:1,2014-07-06T04:12:00Z,27.8398,-97.0727,1.64,1111122 
TCOON,ioos:station:TCOON:009:1,2014-07-06T05:12:00Z,27.8398,-97.0727,1.638,1111122 
TCOON,ioos:station:TCOON:009:1,2014-07-06T06:36:00Z,27.8398,-97.0727,1.641,1111122 
TCOON,ioos:station:TCOON:009:1,2014-07-06T07:12:00Z,27.8398,-97.0727,1.637,1111122 
TCOON,ioos:station:TCOON:009:1,2014-07-06T08:12:00Z,27.8398,-97.0727,1.636,1111122 
TCOON,ioos:station:TCOON:009:1,2014-07-06T09:12:00Z,27.8398,-97.0727,1.656,1111122 
TCOON,ioos:station:TCOON:009:1,2014-07-06T10:12:00Z,27.8398,-97.0727,1.686,1111122 
TCOON,ioos:station:TCOON:009:1,2014-07-06T11:12:00Z,27.8398,-97.0727,1.686,1111122 
TCOON,ioos:station:TCOON:009:1,2014-07-06T12:12:00Z,27.8398,-97.0727,1.67,1111122 
TCOON,ioos:station:TCOON:009:1,2014-07-06T13:12:00Z,27.8398,-97.0727,1.64,1111122 
TCOON,ioos:station:TCOON:009:1,2014-07-06T14:12:00Z,27.8398,-97.0727,1.626,1111122 
TCOON,ioos:station:TCOON:009:1,2014-07-06T15:12:00Z,27.8398,-97.0727,1.648,1111122 
TCOON,ioos:station:TCOON:009:1,2014-07-06T16:12:00Z,27.8398,-97.0727,1.673,1111122 
TCOON,ioos:station:TCOON:009:1,2014-07-06T17:12:00Z,27.8398,-97.0727,1.681,1111122 
TCOON,ioos:station:TCOON:009:1,2014-07-06T18:06:00Z,27.8398,-97.0727,1.643,1111122 
TCOON,ioos:station:TCOON:009:1,2014-07-06T19:12:00Z,27.8398,-97.0727,1.558,1111122 
TCOON,ioos:station:TCOON:009:1,2014-07-06T20:12:00Z,27.8398,-97.0727,1.542,1111122 
TCOON,ioos:station:TCOON:009:1,2014-07-06T21:12:00Z,27.8398,-97.0727,1.55,1111122 
TCOON,ioos:station:TCOON:009:1,2014-07-06T22:12:00Z,27.8398,-97.0727,1.476,1111122 
TCOON,ioos:station:TCOON:009:1,2014-07-06T23:12:00Z,27.8398,-97.0727,1.476,1111122 
TCOON,ioos:station:TCOON:009:1,2014-07-07T00:12:00Z,27.8398,-97.0727,1.509,1111122 
TCOON,ioos:station:TCOON:009:1,2014-07-07T01:12:00Z,27.8398,-97.0727,1.518,1111122 
TCOON,ioos:station:TCOON:009:1,2014-07-07T02:12:00Z,27.8398,-97.0727,1.554,1111122 
TCOON,ioos:station:TCOON:009:1,2014-07-07T03:12:00Z,27.8398,-97.0727,1.592,1111122 
TCOON,ioos:station:TCOON:009:1,2014-07-07T04:12:00Z,27.8398,-97.0727,1.665,1111122 
TCOON,ioos:station:TCOON:009:1,2014-07-07T05:12:00Z,27.8398,-97.0727,1.694,1111122 
TCOON,ioos:station:TCOON:009:1,2014-07-07T06:12:00Z,27.8398,-97.0727,1.64,1111122 
TCOON,ioos:station:TCOON:009:1,2014-07-07T07:12:00Z,27.8398,-97.0727,1.661,1111122 
TCOON,ioos:station:TCOON:009:1,2014-07-07T08:12:00Z,27.8398,-97.0727,1.673,1111122 
TCOON,ioos:station:TCOON:009:1,2014-07-07T09:12:00Z,27.8398,-97.0727,1.695,1111122 
TCOON,ioos:station:TCOON:009:1,2014-07-07T10:12:00Z,27.8398,-97.0727,1.674,1111122 
TCOON,ioos:station:TCOON:009:1,2014-07-07T11:12:00Z,27.8398,-97.0727,1.669,1111122 
TCOON,ioos:station:TCOON:009:1,2014-07-07T12:12:00Z,27.8398,-97.0727,1.682,1111122 
TCOON,ioos:station:TCOON:009:1,2014-07-07T13:12:00Z,27.8398,-97.0727,1.689,1111122 
TCOON,ioos:station:TCOON:009:1,2014-07-07T14:12:00Z,27.8398,-97.0727,1.702,1111122 
TCOON,ioos:station:TCOON:009:1,2014-07-07T15:06:00Z,27.8398,-97.0727,1.694,1111122 
TCOON,ioos:station:TCOON:009:1,2014-07-07T16:12:00Z,27.8398,-97.0727,1.69,1111122 
TCOON,ioos:station:TCOON:009:1,2014-07-07T17:12:00Z,27.8398,-97.0727,1.659,1111122 
TCOON,ioos:station:TCOON:009:1,2014-07-07T18:12:00Z,27.8398,-97.0727,1.599,1111122 
TCOON,ioos:station:TCOON:009:1,2014-07-07T19:12:00Z,27.8398,-97.0727,1.54,1111122 
TCOON,ioos:station:TCOON:009:1,2014-07-07T20:06:00Z,27.8398,-97.0727,1.497,1111122 
TCOON,ioos:station:TCOON:009:1,2014-07-07T21:12:00Z,27.8398,-97.0727,1.446,1111122 
TCOON,ioos:station:TCOON:009:1,2014-07-07T22:12:00Z,27.8398,-97.0727,1.415,1111122 
TCOON,ioos:station:TCOON:009:1,2014-07-07T23:12:00Z,27.8398,-97.0727,1.407,1111122 
TCOON,ioos:station:TCOON:009:1,2014-07-08T00:12:00Z,27.8398,-97.0727,1.417,1111122 
TCOON,ioos:station:TCOON:009:1,2014-07-08T01:12:00Z,27.8398,-97.0727,1.445,1111122 
TCOON,ioos:station:TCOON:009:1,2014-07-08T02:12:00Z,27.8398,-97.0727,1.502,1111122 
TCOON,ioos:station:TCOON:009:1,2014-07-08T03:12:00Z,27.8398,-97.0727,1.557,1111122 
TCOON,ioos:station:TCOON:009:1,2014-07-08T04:12:00Z,27.8398,-97.0727,1.604,1111122 
TCOON,ioos:station:TCOON:009:1,2014-07-08T05:12:00Z,27.8398,-97.0727,1.648,1111122 
TCOON,ioos:station:TCOON:009:1,2014-07-08T06:12:00Z,27.8398,-97.0727,1.683,1111122 
TCOON,ioos:station:TCOON:009:1,2014-07-08T07:12:00Z,27.8398,-97.0727,1.678,1111122 
TCOON,ioos:station:TCOON:009:1,2014-07-08T08:12:00Z,27.8398,-97.0727,1.7,1111122 
TCOON,ioos:station:TCOON:009:1,2014-07-08T09:12:00Z,27.8398,-97.0727,1.697,1111122 
TCOON,ioos:station:TCOON:009:1,2014-07-08T10:12:00Z,27.8398,-97.0727,1.704,1111122 
TCOON,ioos:station:TCOON:009:1,2014-07-08T11:12:00Z,27.8398,-97.0727,1.715,1111122 
TCOON,ioos:station:TCOON:009:1,2014-07-08T12:12:00Z,27.8398,-97.0727,1.731,1111122 
TCOON,ioos:station:TCOON:009:1,2014-07-08T13:12:00Z,27.8398,-97.0727,1.688,1111122 
TCOON,ioos:station:TCOON:009:1,2014-07-08T14:12:00Z,27.8398,-97.0727,1.72,1111122 
TCOON,ioos:station:TCOON:009:1,2014-07-08T15:12:00Z,27.8398,-97.0727,1.717,1111122 
TCOON,ioos:station:TCOON:009:1,2014-07-08T16:06:00Z,27.8398,-97.0727,1.718,1111122 
TCOON,ioos:station:TCOON:009:1,2014-07-08T17:12:00Z,27.8398,-97.0727,1.672,1111122 
TCOON,ioos:station:TCOON:009:1,2014-07-08T18:06:00Z,27.8398,-97.0727,1.636,1111122 
TCOON,ioos:station:TCOON:009:1,2014-07-08T19:12:00Z,27.8398,-97.0727,1.571,1111122 
TCOON,ioos:station:TCOON:009:1,2014-07-08T20:12:00Z,27.8398,-97.0727,1.495,1111122 
TCOON,ioos:station:TCOON:009:1,2014-07-08T21:12:00Z,27.8398,-97.0727,1.455,1111122 
TCOON,ioos:station:TCOON:009:1,2014-07-08T22:12:00Z,27.8398,-97.0727,1.433,1111122 
TCOON,ioos:station:TCOON:009:1,2014-07-08T23:12:00Z,27.8398,-97.0727,1.358,1111122 
TCOON,ioos:station:TCOON:009:1,2014-07-09T00:12:00Z,27.8398,-97.0727,1.313,1111122 
TCOON,ioos:station:TCOON:009:1,2014-07-09T01:12:00Z,27.8398,-97.0727,1.38,1111122 
TCOON,ioos:station:TCOON:009:1,2014-07-09T02:12:00Z,27.8398,-97.0727,1.417,1111122 
TCOON,ioos:station:TCOON:009:1,2014-07-09T03:12:00Z,27.8398,-97.0727,1.481,1111122 
TCOON,ioos:station:TCOON:009:1,2014-07-09T04:12:00Z,27.8398,-97.0727,1.488,1111122 
TCOON,ioos:station:TCOON:009:1,2014-07-09T05:12:00Z,27.8398,-97.0727,1.625,1111122 
TCOON,ioos:station:TCOON:009:1,2014-07-09T06:12:00Z,27.8398,-97.0727,1.625,1111122 
TCOON,ioos:station:TCOON:009:1,2014-07-09T07:12:00Z,27.8398,-97.0727,1.651,1111122 
TCOON,ioos:station:TCOON:009:1,2014-07-09T08:12:00Z,27.8398,-97.0727,1.655,1111122 
TCOON,ioos:station:TCOON:009:1,2014-07-09T09:12:00Z,27.8398,-97.0727,1.678,1111122 
TCOON,ioos:station:TCOON:009:1,2014-07-09T10:12:00Z,27.8398,-97.0727,1.658,1111122 
TCOON,ioos:station:TCOON:009:1,2014-07-09T11:06:00Z,27.8398,-97.0727,1.693,1111122 
TCOON,ioos:station:TCOON:009:1,2014-07-09T12:12:00Z,27.8398,-97.0727,1.687,1111122 
TCOON,ioos:station:TCOON:009:1,2014-07-09T13:12:00Z,27.8398,-97.0727,1.685,1111122 
TCOON,ioos:station:TCOON:009:1,2014-07-09T14:18:00Z,27.8398,-97.0727,1.7,1111122 
TCOON,ioos:station:TCOON:009:1,2014-07-09T15:06:00Z,27.8398,-97.0727,1.699,1111122 
TCOON,ioos:station:TCOON:009:1,2014-07-09T16:06:00Z,27.8398,-97.0727,1.686,1111122 
TCOON,ioos:station:TCOON:009:1,2014-07-09T17:12:00Z,27.8398,-97.0727,1.688,1111122 
TCOON,ioos:station:TCOON:009:1,2014-07-09T18:12:00Z,27.8398,-97.0727,1.637,1111122 
TCOON,ioos:station:TCOON:009:1,2014-07-09T19:12:00Z,27.8398,-97.0727,1.594,1111122 
TCOON,ioos:station:TCOON:009:1,2014-07-09T20:12:00Z,27.8398,-97.0727,1.524,1111122 
TCOON,ioos:station:TCOON:009:1,2014-07-09T21:12:00Z,27.8398,-97.0727,1.452,1111122 
TCOON,ioos:station:TCOON:009:1,2014-07-09T22:12:00Z,27.8398,-97.0727,1.402,1111122 
TCOON,ioos:station:TCOON:009:1,2014-07-09T23:12:00Z,27.8398,-97.0727,1.333,1111122 
TCOON,ioos:station:TCOON:009:1,2014-07-10T00:12:00Z,27.8398,-97.0727,1.291,1111122 
TCOON,ioos:station:TCOON:009:1,2014-07-10T01:12:00Z,27.8398,-97.0727,1.305,1111122 
TCOON,ioos:station:TCOON:009:1,2014-07-10T02:12:00Z,27.8398,-97.0727,1.342,1111122 
TCOON,ioos:station:TCOON:009:1,2014-07-10T03:12:00Z,27.8398,-97.0727,1.386,1111122 
TCOON,ioos:station:TCOON:009:1,2014-07-10T04:12:00Z,27.8398,-97.0727,1.535,1111122 
TCOON,ioos:station:TCOON:009:1,2014-07-10T05:12:00Z,27.8398,-97.0727,1.565,1111122 
TCOON,ioos:station:TCOON:009:1,2014-07-10T06:12:00Z,27.8398,-97.0727,1.628,1111122 
TCOON,ioos:station:TCOON:009:1,2014-07-10T07:12:00Z,27.8398,-97.0727,1.68,1111122 
TCOON,ioos:station:TCOON:009:1,2014-07-10T08:06:00Z,27.8398,-97.0727,1.666,1111122 
TCOON,ioos:station:TCOON:009:1,2014-07-10T09:12:00Z,27.8398,-97.0727,1.709,1111122 
TCOON,ioos:station:TCOON:009:1,2014-07-10T10:12:00Z,27.8398,-97.0727,1.704,1111122 
TCOON,ioos:station:TCOON:009:1,2014-07-10T11:12:00Z,27.8398,-97.0727,1.785,1111122 
TCOON,ioos:station:TCOON:009:1,2014-07-10T12:12:00Z,27.8398,-97.0727,1.762,1111122 
TCOON,ioos:station:TCOON:009:1,2014-07-10T13:12:00Z,27.8398,-97.0727,1.731,1111122 
TCOON,ioos:station:TCOON:009:1,2014-07-10T14:12:00Z,27.8398,-97.0727,1.679,1111122 
TCOON,ioos:station:TCOON:009:1,2014-07-10T15:12:00Z,27.8398,-97.0727,1.716,1111122 
TCOON,ioos:station:TCOON:009:1,2014-07-10T16:06:00Z,27.8398,-97.0727,1.732,1111122 
TCOON,ioos:station:TCOON:009:1,2014-07-10T17:12:00Z,27.8398,-97.0727,1.695,1111122 
TCOON,ioos:station:TCOON:009:1,2014-07-10T18:12:00Z,27.8398,-97.0727,1.689,1111122 
TCOON,ioos:station:TCOON:009:1,2014-07-10T19:12:00Z,27.8398,-97.0727,1.604,1111122 
TCOON,ioos:station:TCOON:009:1,2014-07-10T20:12:00Z,27.8398,-97.0727,1.571,1111122 
TCOON,ioos:station:TCOON:009:1,2014-07-10T21:12:00Z,27.8398,-97.0727,1.538,1111122 
TCOON,ioos:station:TCOON:009:1,2014-07-10T22:12:00Z,27.8398,-97.0727,1.322,1111122 
TCOON,ioos:station:TCOON:009:1,2014-07-10T23:12:00Z,27.8398,-97.0727,1.364,1111122 
TCOON,ioos:station:TCOON:009:1,2014-07-11T00:12:00Z,27.8398,-97.0727,1.258,1111122 
TCOON,ioos:station:TCOON:009:1,2014-07-11T01:12:00Z,27.8398,-97.0727,1.281,1111122 
TCOON,ioos:station:TCOON:009:1,2014-07-11T03:12:00Z,27.8398,-97.0727,1.312,1111122 
TCOON,ioos:station:TCOON:009:1,2014-07-11T15:12:00Z,27.8398,-97.0727,1.72,1111122 
TCOON,ioos:station:TCOON:009:1,2014-07-11T16:12:00Z,27.8398,-97.0727,1.722,1111122 
TCOON,ioos:station:TCOON:009:1,2014-07-11T17:12:00Z,27.8398,-97.0727,1.706,1111122 
TCOON,ioos:station:TCOON:009:1,2014-07-11T18:12:00Z,27.8398,-97.0727,1.702,1111122 
TCOON,ioos:station:TCOON:009:1,2014-07-11T19:12:00Z,27.8398,-97.0727,1.674,1111122 
TCOON,ioos:station:TCOON:009:1,2014-07-11T20:12:00Z,27.8398,-97.0727,1.648,1111122 
TCOON,ioos:station:TCOON:009:1,2014-07-11T21:12:00Z,27.8398,-97.0727,1.565,1111122 
TCOON,ioos:station:TCOON:009:1,2014-07-11T22:12:00Z,27.8398,-97.0727,1.469,1111122 
TCOON,ioos:station:TCOON:009:1,2014-07-11T23:12:00Z,27.8398,-97.0727,1.393,1111122 
TCOON,ioos:station:TCOON:009:1,2014-07-12T00:12:00Z,27.8398,-97.0727,1.324,1111122 
TCOON,ioos:station:TCOON:009:1,2014-07-12T01:12:00Z,27.8398,-97.0727,1.272,1111122 
TCOON,ioos:station:TCOON:009:1,2014-07-12T02:12:00Z,27.8398,-97.0727,1.278,1111122 
TCOON,ioos:station:TCOON:009:1,2014-07-12T03:12:00Z,27.8398,-97.0727,1.25,1111122 
TCOON,ioos:station:TCOON:009:1,2014-07-12T04:12:00Z,27.8398,-97.0727,1.29,1111122 
TCOON,ioos:station:TCOON:009:1,2014-07-12T05:12:00Z,27.8398,-97.0727,1.388,1111122 
TCOON,ioos:station:TCOON:009:1,2014-07-12T06:12:00Z,27.8398,-97.0727,1.461,1111122 
TCOON,ioos:station:TCOON:009:1,2014-07-12T07:12:00Z,27.8398,-97.0727,1.535,1111122 
TCOON,ioos:station:TCOON:009:1,2014-07-12T08:12:00Z,27.8398,-97.0727,1.614,1111122 
TCOON,ioos:station:TCOON:009:1,2014-07-12T09:12:00Z,27.8398,-97.0727,1.665,1111122 
TCOON,ioos:station:TCOON:009:1,2014-07-12T10:12:00Z,27.8398,-97.0727,1.671,1111122 
TCOON,ioos:station:TCOON:009:1,2014-07-12T11:12:00Z,27.8398,-97.0727,1.662,1111122 
TCOON,ioos:station:TCOON:009:1,2014-07-12T12:12:00Z,27.8398,-97.0727,1.677,1111122 
TCOON,ioos:station:TCOON:009:1,2014-07-12T13:12:00Z,27.8398,-97.0727,1.703,1111122 
TCOON,ioos:station:TCOON:009:1,2014-07-12T14:12:00Z,27.8398,-97.0727,1.675,1111122 
TCOON,ioos:station:TCOON:009:1,2014-07-12T15:12:00Z,27.8398,-97.0727,1.668,1111122 
TCOON,ioos:station:TCOON:009:1,2014-07-12T16:12:00Z,27.8398,-97.0727,1.667,1111122 
TCOON,ioos:station:TCOON:009:1,2014-07-12T17:12:00Z,27.8398,-97.0727,1.689,1111122 
TCOON,ioos:station:TCOON:009:1,2014-07-12T18:12:00Z,27.8398,-97.0727,1.674,1111122 
TCOON,ioos:station:TCOON:009:1,2014-07-12T19:12:00Z,27.8398,-97.0727,1.663,1111122 
TCOON,ioos:station:TCOON:009:1,2014-07-12T20:12:00Z,27.8398,-97.0727,1.666,1111122 
TCOON,ioos:station:TCOON:009:1,2014-07-12T21:12:00Z,27.8398,-97.0727,1.625,1111122 
TCOON,ioos:station:TCOON:009:1,2014-07-12T22:12:00Z,27.8398,-97.0727,1.569,1111122 
TCOON,ioos:station:TCOON:009:1,2014-07-12T23:12:00Z,27.8398,-97.0727,1.472,1111122 
TCOON,ioos:station:TCOON:009:1,2014-07-13T00:12:00Z,27.8398,-97.0727,1.381,1111122 
TCOON,ioos:station:TCOON:009:1,2014-07-13T01:12:00Z,27.8398,-97.0727,1.345,1111122 
TCOON,ioos:station:TCOON:009:1,2014-07-13T02:12:00Z,27.8398,-97.0727,1.28,1111122 
TCOON,ioos:station:TCOON:009:1,2014-07-13T03:12:00Z,27.8398,-97.0727,1.258,1111122 
TCOON,ioos:station:TCOON:009:1,2014-07-13T04:12:00Z,27.8398,-97.0727,1.315,1111122 
TCOON,ioos:station:TCOON:009:1,2014-07-13T05:12:00Z,27.8398,-97.0727,1.368,1111122 
TCOON,ioos:station:TCOON:009:1,2014-07-13T06:30:00Z,27.8398,-97.0727,1.449,1111122 
TCOON,ioos:station:TCOON:009:1,2014-07-13T07:12:00Z,27.8398,-97.0727,1.498,1111122 
TCOON,ioos:station:TCOON:009:1,2014-07-13T08:12:00Z,27.8398,-97.0727,1.565,1111122 